Погода в Таганроге

Хотите узнать прогноз погоды в Таганроге? Тогда Вам сюда: Погода в Таганроге

Поиск расширенной информации на нашем сайте:

Полезная информация:

Новости сайта



02.01.2020
Опубликован Долгосрочный прогноз погоды по городам России и ближнего зарубежья на январь 2020 года.
Карты: Прогноз на январь и февраль 2020 года, Сравнение прогнозируемой аномалии приземной температуры воздуха на январь 2020 года по разным моделям.




Погода в Таганроге - сегодня

Время (UTC), дата Ветер
(°,м/с) 
Видим.   Явления Облачность Т
(°С)
Тd
(°С)
f(%) Тe
(°С)
Pmin
(гПа)
dP
(гПа)
Po
(мм)
O2
(г/м3)
Тmin Tmax R s Состояние
почвы
15 18.10.20 310 (СЗ) 4{10}  20000 м    9/0 средняя, верхняя 
[Ac trans|Ci fib]
+20.4 +3.8 33 +20  1010.4  1.4  755  283    +26       
18 18.10.20 340 (С) 20000 м    4/4 1000 м 
[Sc]
+16.5 +12.8 79 +22  1015.5  1.3  759  286           
21 18.10.20 340 (С) 20000 м    8/8 1000 м 
[Sc]
+15.5 +7.8 60 +16  1016.2  0.7  759  288           
00 19.10.20 010 (С) 20000 м    8/8 1000 м 
[Sc]
+14.4 +6.8 60 +15  1016.9  0.7  760  290           
03 19.10.20 010 (С) 20000 м    6/6 1000 м 
[Sc]
+12.5 +7.2 70 +12  1018.3  1.3  761  292  +12.5        сухая 
06 19.10.20 020 (С) 20000 м    8/0 средняя 
[Ac trans]
+13.4 +7.3 67 +14  1018.9  0.6  761  291  +11.9         
09 19.10.20 040 (СВ) 20000 м    9/9 600 м средняя 
[Sc|Ac lent]
+16.6 +7.7 56 +18  1018.3  -0.7  761  288           
12 19.10.20 320 (СЗ) 20000 м  слаб. ливневой дождь  10/10 600 м кучево-дожд. 
[Cb cap]
+15.3 +9 66 +17  1017.6  -0.6  760  289           
15 19.10.20 тихо ()   10 км  слаб. ливневой дождь  10/10 300 м кучево-дожд. 
[Cb cap]
+12.2 +10.7 91 +14  1018.6  0.9  761  292    +17.8     
18 19.10.20 330 (СЗ) 10 км  в посл. час ливневой дождь  10/10 600 м кучево-дожд. 
[Cb cap]
+11 +8.5 85 +11  1020.7  763  294           
21 19.10.20 310 (СЗ) 20000 м    6/6 600 м 
[St]
+10.4 +7.9 84 +12  1022.5  1.7  764  295           
00 20.10.20 330 (СЗ) 20000 м    ясно 
+8.2 +5.1 81 +8  1023.7  1.1  765  298           
03 20.10.20 330 (СЗ) 20000 м    ясно 
+6.3 +3.9 85 +6  1024.3  0.6  765  301  +6.3      влажная 
06 20.10.20 320 (СЗ) 10 км    ясно 
+9.1 +5.1 76 +10  1025.9  1.6  767  298  +5.8         
09 20.10.20 320 (СЗ) 20000 м    ясно 
+13.4 +4 53 +14  1025.9  767  294           
12 20.10.20 260 (З) 20000 м    1/0 
[]
+15 +1.9 41 +16  1024.9  -1  766  292           
15 20.10.20 270 (З) 20000 м    5/3 1000 м средняя 
[Sc|Ac trans]
+11.4 +4 60 +13  1025.2  0.3  766  296    +15       
18 20.10.20 310 (СЗ) 20000 м    ясно 
+9.6 +1.9 59 +10  1025.9  0.7  767  298           
21 20.10.20 320 (СЗ) 20000 м    ясно 
+7.1 +1.3 67 +7  1027.3  1.3  767  301           
00 21.10.20 330 (СЗ) 20000 м    ясно 
+5.2 +1 74 +4  1028.1  0.8  768  304           
03 21.10.20 330 (СЗ) 20000 м    ясно 
+4 +0.5 78 +3  1029.1  769  305  +4        сухая 
06 21.10.20 330 (СЗ) 20000 м    ясно 
+8.5 +2.3 65 +9  1030.2  1.1  770  300  +3.8         
09 21.10.20 200 (Ю) 20000 м    8/0 верхняя 
[Ci fib]
+12.9 +2 47 +13  1029.8  -0.3  769  296           
12 21.10.20 210 (ЮЗ) 20000 м    9/0 средняя, верхняя 
[As trans|Ci fib]
+12 +3.2 55 +12  1028.6  -1.3  768  296           
15 21.10.20 240 (ЮЗ) 20000 м    9/0 средняя 
[Ac As]
+10.9 +2.9 58 +12  1027.3  -1.2  768  297    +14       
Время (UTC), дата Ветер
(°,м/с) 
Видим.   Явления Облачность Т
(°С)
Тd
(°С)
f(%) Тe
(°С)
Pmin
(гПа)
dP
(гПа)
Po
(мм)
O2
(г/м3)
Тmin Tmax R s Состояние
почвы

Для получения пояснительной информации подведите курсор к названию столбца.

ПОГОДА в Таганроге - архив

Всё, что Вы хотите узнать о погоде в Таганроге - удобно и подробно!

Выберите нужную дату (начиная с 1 января 2019* года) и нажмите кнопку "Найти".
Будут отображены архивные сводки погоды по пункту Таганрог, начиная с указанной даты.


Отображать данные в формате CSV (для использования в таблицах Excel)


Внимание! Наш архив погоды предназначен исключительно для личного некоммерческого использования в познавательных целях. Если Вам необходимы официальные справки о состоянии погоды (для производственных, юридических, коммерческих и т.п. целей), обращайтесь в органы Росгидромета.

*Примечание: данная дата относится к архиву по метеостанциям СССР (Россия, СНГ, Балтия).
Архив по метеостанциям Зарубежной Европы и Азии (кроме Китая) хранится 10 дней, по другим регионам земного шара (Китай, Африка, Америка, Австралия, Океания) - 1 день.

Таганрог - район местоположения метеостанции


Название, широта, долгота, высота метеостанции:
Таганрог 47.2°ш. 38.9°д. 32 м над ур. моря [Российская Федерация]

Дополнительная информация

В oтличие oт бoльшинства пoгoдных сайтoв мы публикуем пoдрoбную метеoинфoрмацию в детальнoм прoфессиoнальнoм фoрмате.

Характеристики температуры и влажнoсти вoздуха измеряются на высoте 2 м в тени вдали oт зданий и деревьев.
Скoрoсть ветра измеряется на высoте 10 м (на урoвне рoста челoвека скoрoсть ветра ниже в 1.5-2 раза). Если метеoстанция нахoдится в гoрoде или в лесу, тo скoрoсть ветра занижена на 2-4 м/с пo сравнению с oткрытым местoм. Скoрoсть ветра над акватoриями крупных рек и oзёр, а также на вершинах хoлмoв на 2-5 м/с выше, чем в oбычных услoвиях.
Атмoсфернoе давление в разных тoчках местнoсти мoжет значительнo oтличаться oт давления на метеoстанции, в зависимoсти oт услoвий рельефа (при пoдъёме на 10 м давление пoнижается примернo на 1 мм рт.ст.).